Location: Peterborough
(44.3091°N, 78.3197°W)
Time: 20:04:46
(UTC-04:00)

Altair - Pass Details

Date: 25 March 2023
Orbit: 1501 x 1682 km, 47.2° (Epoch: 04 June)

Event Time Altitude Azimuth Distance (km) Brightness Sun altitude
Exits shadow 05:53:54 - 210° (SSW) 4,505 9.5 -13.8°
Reaches altitude 10° 05:56:25 10° 205° (SSW) 3,747 9.2 -13.4°
Maximum altitude 06:05:03 42° 139° (SE) 2,065 8.4 -11.9°
Drops below altitude 10° 06:13:28 10° 72° (ENE) 3,664 11.1 -10.4°
Sets 06:16:40 0° 66° (ENE) 4,641 12.0 -9.9°
